| time (UTC) | temp F | wind direction | speed MPH | gust MPH | rain 1hr in | rain 24hr in | rain mn in | humidity % | barometer mb |
| 20260510132434 | 73 | 231 | 7.0 | 13.0 | 0.00 | 0.00 | 0.00 | 41 | 1008.7 |
| 20260510131333 | 72 | 209 | 7.0 | 11.0 | 0.00 | 0.00 | 0.00 | 44 | 1008.7 |
| 20260510130234 | 71 | 221 | 8.0 | 12.0 | 0.00 | 0.00 | 0.00 | 46 | 1008.4 |
| 20260510125132 | 71 | 214 | 9.0 | 12.0 | 0.00 | 0.00 | 0.00 | 46 | 1008.3 |
| 20260510124031 | 71 | 208 | 8.0 | 10.0 | 0.00 | 0.00 | 0.00 | 46 | 1008.2 |
| 20260510122931 | 71 | 206 | 10.0 | 14.0 | 0.00 | 0.00 | 0.00 | 46 | 1008.1 |
| 20260510121830 | 72 | 202 | 12.0 | 15.0 | 0.00 | 0.00 | 0.00 | 45 | 1007.9 |
| 20260510120729 | 72 | 210 | 11.0 | 16.0 | 0.00 | 0.00 | 0.00 | 46 | 1007.8 |
| 20260510115629 | 71 | 199 | 10.0 | 13.0 | 0.00 | 0.00 | 0.00 | 48 | 1007.9 |
| 20260510114528 | 71 | 193 | 11.0 | 15.0 | 0.00 | 0.00 | 0.00 | 48 | 1007.6 |
| 20260510113428 | 71 | 194 | 9.0 | 12.0 | 0.00 | 0.00 | 0.00 | 48 | 1007.7 |
| 20260510112327 | 72 | 204 | 12.0 | 18.0 | 0.00 | 0.00 | 0.00 | 47 | 1007.6 |
| 20260510111226 | 72 | 206 | 14.0 | 20.0 | 0.00 | 0.00 | 0.00 | 46 | 1007.5 |
| 20260510110126 | 72 | 181 | 9.0 | 22.0 | 0.00 | 0.00 | 0.00 | 46 | 1007.3 |
| 20260510105229 | 72 | 175 | 8.0 | 18.0 | 0.00 | 0.00 | 0.00 | 47 | 1007.1 |
| 20260510105025 | 72 | 175 | 8.0 | 18.0 | 0.00 | 0.00 | 0.00 | 47 | 1007.1 |
| 20260510103924 | 72 | 168 | 10.0 | 19.0 | 0.00 | 0.00 | 0.00 | 47 | 1007.1 |
| 20260510102824 | 72 | 167 | 10.0 | 17.0 | 0.00 | 0.00 | 0.00 | 47 | 1007.1 |
| 20260510101723 | 72 | 173 | 9.0 | 18.0 | 0.00 | 0.00 | 0.00 | 48 | 1007.2 |
| 20260510100623 | 71 | 170 | 12.0 | 20.0 | 0.00 | 0.00 | 0.00 | 49 | 1007.2 |
| 20260510095522 | 70 | 192 | 12.0 | 16.0 | 0.00 | 0.00 | 0.00 | 52 | 1007.2 |
| 20260510094422 | 71 | 183 | 13.0 | 22.0 | 0.00 | 0.00 | 0.00 | 50 | 1007.1 |
| 20260510093321 | 71 | 171 | 12.0 | 18.0 | 0.00 | 0.00 | 0.00 | 51 | 1007.1 |
| 20260510092220 | 71 | 193 | 8.0 | 16.0 | 0.00 | 0.00 | 0.00 | 52 | 1007.3 |
| 20260510091120 | 71 | 167 | 7.0 | 12.0 | 0.00 | 0.00 | 0.00 | 53 | 1007.2 |
| 20260510090019 | 71 | 156 | 7.0 | 9.0 | 0.00 | 0.00 | 0.00 | 53 | 1007.3 |
| 20260510084918 | 72 | 149 | 6.0 | 10.0 | 0.00 | 0.00 | 0.00 | 53 | 1007.3 |
| 20260510083818 | 72 | 156 | 6.0 | 11.0 | 0.00 | 0.00 | 0.00 | 53 | 1007.3 |
| 20260510082717 | 71 | 160 | 6.0 | 9.0 | 0.00 | 0.00 | 0.00 | 53 | 1007.4 |
| 20260510081617 | 71 | 156 | 6.0 | 8.0 | 0.00 | 0.00 | 0.00 | 55 | 1007.5 |
| 20260510080516 | 71 | 149 | 7.0 | 9.0 | 0.00 | 0.00 | 0.00 | 56 | 1007.6 |
| 20260510075415 | 71 | 150 | 7.0 | 11.0 | 0.00 | 0.00 | 0.00 | 57 | 1007.7 |
| 20260510074315 | 72 | 162 | 8.0 | 16.0 | 0.00 | 0.00 | 0.00 | 56 | 1007.7 |
| 20260510073214 | 72 | 135 | 8.0 | 13.0 | 0.00 | 0.00 | 0.00 | 55 | 1008.0 |
| 20260510072113 | 72 | 57 | 8.0 | 14.0 | 0.00 | 0.00 | 0.00 | 53 | 1008.1 |
| 20260510071013 | 72 | 155 | 8.0 | 16.0 | 0.00 | 0.00 | 0.00 | 53 | 1008.3 |
| 20260510065912 | 72 | 146 | 9.0 | 15.0 | 0.00 | 0.00 | 0.00 | 52 | 1008.4 |
| 20260510064812 | 73 | 168 | 9.0 | 21.0 | 0.00 | 0.00 | 0.00 | 52 | 1008.5 |
| 20260510063711 | 73 | 147 | 9.0 | 18.0 | 0.00 | 0.00 | 0.00 | 52 | 1008.7 |
| 20260510062610 | 73 | 152 | 8.0 | 15.0 | 0.00 | 0.00 | 0.00 | 51 | 1008.6 |
| 20260510061510 | 73 | 161 | 8.0 | 16.0 | 0.00 | 0.00 | 0.00 | 50 | 1008.8 |
| 20260510060409 | 72 | 164 | 8.0 | 16.0 | 0.00 | 0.00 | 0.00 | 49 | 1008.8 |
| 20260510055308 | 73 | 158 | 7.0 | 12.0 | 0.00 | 0.00 | 0.00 | 46 | 1008.9 |
| 20260510054208 | 73 | 144 | 7.0 | 14.0 | 0.00 | 0.00 | 0.00 | 44 | 1008.8 |
| 20260510053108 | 74 | 136 | 7.0 | 14.0 | 0.00 | 0.00 | 0.00 | 42 | 1009.0 |
| 20260510052007 | 74 | 133 | 6.0 | 17.0 | 0.00 | 0.00 | 0.00 | 40 | 1009.0 |
| 20260510050906 | 74 | 163 | 7.0 | 11.0 | 0.00 | 0.00 | 0.00 | 40 | 1009.1 |
| 20260510045805 | 74 | 152 | 6.0 | 13.0 | 0.00 | 0.00 | 0.00 | 37 | 1009.3 |
| 20260510044705 | 74 | 160 | 6.0 | 11.0 | 0.00 | 0.00 | 0.00 | 34 | 1009.4 |
| 20260510043604 | 75 | 152 | 6.0 | 11.0 | 0.00 | 0.00 | 0.00 | 32 | 1009.4 |
| 20260510041403 | 74 | 152 | 7.0 | 11.0 | 0.00 | 0.00 | 0.00 | 30 | 1009.4 |
| 20260510040302 | 75 | 147 | 8.0 | 11.0 | 0.00 | 0.00 | 0.00 | 28 | 1009.5 |
| 20260510035202 | 75 | 146 | 6.0 | 12.0 | 0.00 | 0.00 | 0.00 | 27 | 1009.3 |
| 20260510034101 | 75 | 147 | 7.0 | 16.0 | 0.00 | 0.00 | 0.00 | 26 | 1009.4 |
| 20260510033001 | 76 | 142 | 7.0 | 11.0 | 0.00 | 0.00 | 0.00 | 26 | 1009.3 |
| 20260510031900 | 76 | 145 | 8.0 | 12.0 | 0.00 | 0.00 | 0.00 | 25 | 1009.2 |
| 20260510030759 | 76 | 145 | 8.0 | 12.0 | 0.00 | 0.00 | 0.00 | 25 | 1009.0 |
| 20260510025659 | 77 | 145 | 7.0 | 12.0 | 0.00 | 0.00 | 0.00 | 25 | 1008.9 |
| 20260510024558 | 77 | 149 | 7.0 | 12.0 | 0.00 | 0.00 | 0.00 | 24 | 1008.7 |
| 20260510023457 | 77 | 131 | 8.0 | 14.0 | 0.00 | 0.00 | 0.00 | 23 | 1008.5 |
| 20260510022357 | 78 | 124 | 8.0 | 13.0 | 0.00 | 0.00 | 0.00 | 23 | 1008.4 |
| 20260510021256 | 78 | 137 | 6.0 | 11.0 | 0.00 | 0.00 | 0.00 | 23 | 1008.3 |
| 20260510020156 | 79 | 122 | 5.0 | 8.0 | 0.00 | 0.00 | 0.00 | 23 | 1008.3 |
| 20260510015055 | 80 | 119 | 6.0 | 8.0 | 0.00 | 0.00 | 0.00 | 22 | 1008.2 |
| 20260510013954 | 81 | 130 | 6.0 | 11.0 | 0.00 | 0.00 | 0.00 | 21 | 1008.2 |
| 20260510012854 | 82 | 119 | 6.0 | 9.0 | 0.00 | 0.00 | 0.00 | 19 | 1008.1 |
| 20260510011753 | 83 | 127 | 6.0 | 9.0 | 0.00 | 0.00 | 0.00 | 19 | 1008.0 |
| 20260510010653 | 85 | 112 | 8.0 | 11.0 | 0.00 | 0.00 | 0.00 | 18 | 1007.8 |
| 20260510005552 | 86 | 112 | 7.0 | 11.0 | 0.00 | 0.00 | 0.00 | 16 | 1007.7 |
| 20260510004451 | 86 | 122 | 9.0 | 13.0 | 0.00 | 0.00 | 0.00 | 15 | 1007.8 |
| 20260510003351 | 87 | 103 | 9.0 | 11.0 | 0.00 | 0.00 | 0.00 | 16 | 1007.7 |
| 20260510002250 | 87 | 118 | 10.0 | 18.0 | 0.00 | 0.00 | 0.00 | 15 | 1007.7 |
| 20260510001149 | 88 | 108 | 9.0 | 14.0 | 0.00 | 0.00 | 0.00 | 14 | 1007.9 |
| 20260510000049 | 88 | 112 | 10.0 | 15.0 | 0.00 | 0.00 | 0.00 | 13 | 1007.9 |
| 20260509234948 | 89 | 95 | 8.0 | 11.0 | 0.00 | 0.00 | 0.00 | 14 | 1008.0 |
| 20260509233848 | 89 | 116 | 6.0 | 11.0 | 0.00 | 0.00 | 0.00 | 14 | 1008.1 |
| 20260509232747 | 90 | 117 | 6.0 | 9.0 | 0.00 | 0.00 | 0.00 | 13 | 1008.3 |
| 20260509231646 | 90 | 175 | 3.0 | 5.0 | 0.00 | 0.00 | 0.00 | 12 | 1008.4 |
| 20260509230546 | 90 | 82 | 7.0 | 13.0 | 0.00 | 0.00 | 0.00 | 12 | 1008.5 |
| 20260509225445 | 90 | 79 | 11.0 | 14.0 | 0.00 | 0.00 | 0.00 | 12 | 1008.5 |
| 20260509224344 | 91 | 88 | 10.0 | 15.0 | 0.00 | 0.00 | 0.00 | 10 | 1008.4 |
| 20260509223244 | 91 | 90 | 8.0 | 14.0 | 0.00 | 0.00 | 0.00 | 11 | 1008.5 |
| 20260509222143 | 90 | 103 | 6.0 | 11.0 | 0.00 | 0.00 | 0.00 | 11 | 1008.5 |
| 20260509221043 | 91 | 94 | 6.0 | 12.0 | 0.00 | 0.00 | 0.00 | 11 | 1008.5 |
| 20260509215942 | 90 | 111 | 6.0 | 9.0 | 0.00 | 0.00 | 0.00 | 12 | 1008.7 |
| 20260509214841 | 91 | 110 | 4.0 | 8.0 | 0.00 | 0.00 | 0.00 | 12 | 1008.8 |
| 20260509213741 | 90 | 87 | 9.0 | 13.0 | 0.00 | 0.00 | 0.00 | 12 | 1009.0 |
| 20260509212640 | 90 | 143 | 4.0 | 5.0 | 0.00 | 0.00 | 0.00 | 11 | 1008.9 |
| 20260509211540 | 91 | 118 | 4.0 | 12.0 | 0.00 | 0.00 | 0.00 | 11 | 1009.2 |
| 20260509210439 | 90 | 191 | 7.0 | 12.0 | 0.00 | 0.00 | 0.00 | 12 | 1009.5 |
| 20260509205338 | 91 | 195 | 5.0 | 11.0 | 0.00 | 0.00 | 0.00 | 11 | 1009.5 |
| 20260509204238 | 90 | 115 | 4.0 | 4.0 | 0.00 | 0.00 | 0.00 | 12 | 1009.8 |
| 20260509203137 | 90 | 268 | 5.0 | 12.0 | 0.00 | 0.00 | 0.00 | 12 | 1009.8 |
| 20260509202036 | 90 | 212 | 5.0 | 13.0 | 0.00 | 0.00 | 0.00 | 13 | 1010.1 |
| 20260509200936 | 89 | 186 | 6.0 | 9.0 | 0.00 | 0.00 | 0.00 | 14 | 1010.2 |
| 20260509195835 | 89 | 157 | 6.0 | 21.0 | 0.00 | 0.00 | 0.00 | 12 | 1010.3 |
| 20260509194735 | 91 | 62 | 1.0 | 5.0 | 0.00 | 0.00 | 0.00 | 12 | 1010.5 |
| 20260509193634 | 88 | 160 | 2.0 | 10.0 | 0.00 | 0.00 | 0.00 | 13 | 1010.4 |
| 20260509192533 | 89 | 113 | 5.0 | 8.0 | 0.00 | 0.00 | 0.00 | 12 | 1010.7 |
| 20260509191433 | 89 | 215 | 3.0 | 7.0 | 0.00 | 0.00 | 0.00 | 13 | 1010.7 |
| 20260509190332 | 89 | 93 | 3.0 | 6.0 | 0.00 | 0.00 | 0.00 | 14 | 1011.0 |
| 20260509185231 | 86 | 244 | 8.0 | 11.0 | 0.00 | 0.00 | 0.00 | 14 | 1011.1 |
| 20260509184131 | 88 | 175 | 2.0 | 6.0 | 0.00 | 0.00 | 0.00 | 14 | 1011.1 |
| 20260509183030 | 88 | 191 | 3.0 | 7.0 | 0.00 | 0.00 | 0.00 | 14 | 1011.2 |
| 20260509181930 | 90 | 177 | 1.0 | 5.0 | 0.00 | 0.00 | 0.00 | 13 | 1011.5 |
| 20260509180829 | 87 | 38 | 3.0 | 6.0 | 0.00 | 0.00 | 0.00 | 14 | 1011.8 |
| 20260509175728 | 86 | 188 | 4.0 | 8.0 | 0.00 | 0.00 | 0.00 | 15 | 1011.9 |
| 20260509174628 | 86 | 161 | 3.0 | 8.0 | 0.00 | 0.00 | 0.00 | 17 | 1012.0 |
| 20260509173527 | 87 | 89 | 3.0 | 8.0 | 0.00 | 0.00 | 0.00 | 17 | 1012.1 |
| 20260509172426 | 84 | 182 | 2.0 | 9.0 | 0.00 | 0.00 | 0.00 | 17 | 1012.0 |
| 20260509171326 | 85 | 147 | 2.0 | 9.0 | 0.00 | 0.00 | 0.00 | 17 | 1012.0 |
| 20260509170225 | 84 | 282 | 5.0 | 10.0 | 0.00 | 0.00 | 0.00 | 17 | 1012.2 |
| 20260509165125 | 84 | 249 | 3.0 | 6.0 | 0.00 | 0.00 | 0.00 | 18 | 1012.2 |
| 20260509164024 | 82 | 228 | 5.0 | 8.0 | 0.00 | 0.00 | 0.00 | 20 | 1012.3 |
| 20260509162923 | 82 | 213 | 3.0 | 7.0 | 0.00 | 0.00 | 0.00 | 19 | 1012.5 |
| 20260509161823 | 82 | 137 | 2.0 | 5.0 | 0.00 | 0.00 | 0.00 | 20 | 1012.5 |
| 20260509160722 | 81 | 94 | 2.0 | 4.0 | 0.00 | 0.00 | 0.00 | 23 | 1012.5 |
| 20260509155622 | 80 | 208 | 2.0 | 5.0 | 0.00 | 0.00 | 0.00 | 23 | 1012.5 |
| 20260509154521 | 79 | 231 | 3.0 | 6.0 | 0.00 | 0.00 | 0.00 | 26 | 1012.5 |
| 20260509153420 | 78 | 189 | 2.0 | 7.0 | 0.00 | 0.00 | 0.00 | 27 | 1012.4 |
| 20260509152320 | 78 | 179 | 3.0 | 7.0 | 0.00 | 0.00 | 0.00 | 26 | 1012.5 |
| 20260509151219 | 77 | 157 | 3.0 | 6.0 | 0.00 | 0.00 | 0.00 | 26 | 1012.4 |
| 20260509150118 | 76 | 181 | 4.0 | 7.0 | 0.00 | 0.00 | 0.00 | 28 | 1012.6 |
| 20260509145018 | 74 | 192 | 4.0 | 8.0 | 0.00 | 0.00 | 0.00 | 29 | 1012.6 |
| 20260509143918 | 72 | 207 | 5.0 | 8.0 | 0.00 | 0.00 | 0.00 | 32 | 1012.8 |
| 20260509142817 | 71 | 195 | 6.0 | 8.0 | 0.00 | 0.00 | 0.00 | 35 | 1012.8 |
| 20260509141716 | 74 | 199 | 4.0 | 7.0 | 0.00 | 0.00 | 0.00 | 31 | 1012.7 |
| 20260509140615 | 73 | 155 | 3.0 | 5.0 | 0.00 | 0.00 | 0.00 | 29 | 1012.5 |
| 20260509135515 | 72 | 120 | 4.0 | 7.0 | 0.00 | 0.00 | 0.00 | 29 | 1012.5 |
| 20260509134414 | 73 | 118 | 4.0 | 8.0 | 0.00 | 0.00 | 0.00 | 29 | 1012.6 |
| 20260509133314 | 72 | 115 | 3.0 | 6.0 | 0.00 | 0.00 | 0.00 | 29 | 1012.6 |